Location: Newark
(44.6303°N, 123.0961°W)
Time: 16:55:27
(UTC+00:00)

Envisat - Pass Details

Date: 02 February 2020
Orbit: 764 x 766 km, 98.1° (Epoch: 17 February)

Event Time Altitude Azimuth Distance (km) Brightness Sun altitude
Rises 14:35:05 0° 17° (NNE) 3,241 6.3 -10.2°
Reaches altitude 10° 14:37:28 10° 22° (NNE) 2,311 5.6 -9.8°
Maximum altitude 14:42:27 55° 100° (E) 921 3.9 -8.9°
Drops below altitude 10° 14:47:24 10° 178° (S) 2,294 5.7 -8.1°
Sets 14:49:45 0° 183° (S) 3,215 6.4 -7.7°
